FW1308 Weather Reports


time (UTC)temp
C
wind
direction
speed
KPH
gust
KPH
rain 1hr
cm
rain 24hr
cm
rain mn
cm
humidity
%
barometer
mb
20260506014522 7 38 0.0 4.8 0.00 0.00 0.00 80 1015.7
20260506013022 7 19 0.0 6.4 0.00 0.00 0.00 80 1015.8
20260506011520 7 35 0.0 1.6 0.00 0.00 0.00 80 1015.8
20260506010019 7 36 0.0 4.8 0.00 0.00 0.00 79 1015.8
20260506004523 7 70 0.0 4.8 0.00 0.00 0.00 78 1015.8
20260506003016 7 70 0.0 4.8 0.00 0.00 0.00 77 1016.0
20260506001515 7 15 0.0 6.4 0.00 0.00 0.00 76 1016.0
20260506000013 7 49 1.6 8.0 0.00 0.00 0.00 76 1015.8
20260505234511 7 43 0.0 8.0 0.00 0.00 0.00 75 1015.9
20260505233007 8 10 0.0 6.4 0.00 0.00 0.00 76 1016.0
20260505231504 8 355 1.6 8.0 0.00 0.00 0.00 76 1016.0
20260505230101 8 83 0.0 3.2 0.00 0.00 0.00 78 1016.1
20260505224600 8 19 1.6 8.0 0.00 0.00 0.00 79 1016.0
20260505223059 8 40 1.6 11.3 0.00 0.00 0.00 79 1016.0
20260505221559 8 90 0.0 9.7 0.00 0.00 0.00 79 1016.0
20260505220057 8 79 1.6 9.7 0.00 0.00 0.00 79 1015.8
20260505214600 8 72 0.0 8.0 0.00 0.00 0.00 79 1015.9
20260505213055 9 73 0.0 14.5 0.00 0.00 0.00 78 1015.9
20260505211609 9 57 0.0 8.0 0.00 0.00 0.00 78 1015.7
20260505210059 9 4 4.8 12.9 0.00 0.00 0.00 76 1015.7
20260505204601 10 76 0.0 8.0 0.00 0.00 0.00 75 1015.6
20260505203058 10 36 1.6 8.0 0.00 0.00 0.00 75 1015.5
20260505201559 10 348 1.6 9.7 0.00 0.00 0.00 75 1015.4
20260505200052 10 35 1.6 9.7 0.00 0.00 0.00 81 1015.3
20260505194607 10 142 1.6 4.8 0.00 0.00 0.00 81 1015.0
20260505193052 10 53 0.0 6.4 0.00 0.00 0.00 80 1015.0
20260505191551 10 22 1.6 8.0 0.00 0.00 0.00 79 1014.8
20260505190051 11 115 3.2 9.7 0.00 0.00 0.00 79 1014.7
20260505184550 11 68 0.0 8.0 0.00 0.00 0.00 78 1014.6
20260505183048 11 5 0.0 11.3 0.00 0.00 0.00 78 1014.5
20260505181552 11 81 3.2 12.9 0.00 0.00 0.00 77 1014.3
20260505180046 12 23 3.2 16.1 0.00 0.00 0.00 76 1014.2
20260505174553 13 44 0.0 4.8 0.00 0.00 0.00 64 1014.1
20260505173045 13 55 0.0 6.4 0.00 0.00 0.00 64 1014.0
20260505171545 13 25 1.6 8.0 0.00 0.00 0.00 62 1014.1
20260505170044 13 80 0.0 6.4 0.00 0.00 0.00 62 1014.0
20260505164601 14 304 0.0 6.4 0.00 0.00 0.00 62 1013.9
20260505163051 14 245 0.0 4.8 0.00 0.00 0.00 59 1013.9
20260505161541 15 62 1.6 6.4 0.00 0.00 0.00 58 1013.9
20260505153038 15 67 1.6 6.4 0.00 0.00 0.00 56 1014.0
20260505151537 15 63 0.0 8.0 0.00 0.00 0.00 58 1013.9
20260505124522 14 39 0.0 9.7 0.00 0.00 0.00 61 1014.3
20260505123021 14 56 0.0 3.2 0.00 0.00 0.00 62 1014.3
20260505121519 14 72 0.0 4.8 0.00 0.00 0.00 63 1014.3
20260505120011 13 156 0.0 6.4 0.00 0.00 0.00 65 1014.4
20260505114536 13 113 1.6 6.4 0.00 0.00 0.00 64 1014.3
20260505113036 13 256 0.0 8.0 0.00 0.00 0.00 65 1014.4
20260505111538 13 358 0.0 4.8 0.00 0.00 0.00 65 1014.4
20260505101528 13 159 0.0 6.4 0.00 0.00 0.00 67 1014.8
20260505100030 14 262 0.0 8.0 0.00 0.00 0.00 67 1014.7
20260505094524 13 214 0.0 9.7 0.00 0.00 0.00 69 1014.8
20260505093022 13 253 3.2 6.4 0.00 0.00 0.00 69 1014.8
20260505091517 13 41 1.6 4.8 0.00 0.00 0.00 72 1014.8
20260505090013 12 60 0.0 8.0 0.00 0.00 0.00 74 1014.9
20260505084518 12 271 1.6 6.4 0.00 0.00 0.00 74 1015.0
20260505083014 12 278 3.2 6.4 0.00 0.00 0.00 74 1015.1
20260505081510 11 239 0.0 9.7 0.00 0.00 0.00 78 1015.3
20260505080006 10 232 1.6 6.4 0.00 0.00 0.00 80 1015.4
20260505074506 10 275 1.6 6.4 0.00 0.00 0.00 79 1015.3
20260505073001 10 255 0.0 3.2 0.00 0.00 0.00 83 1015.2
20260505071617 9 257 0.0 3.2 0.00 0.00 0.00 84 1015.1
20260505070111 8 258 1.6 4.8 0.00 0.00 0.00 85 1015.2
20260505064600 8 263 1.6 4.8 0.00 0.00 0.00 85 1015.3
20260505063056 8 254 0.0 8.0 0.00 0.00 0.00 85 1015.3
20260505061558 7 261 1.6 6.4 0.00 0.00 0.00 88 1015.3
20260505060053 7 250 0.0 4.8 0.00 0.00 0.00 89 1015.3
20260505054556 7 257 0.0 3.2 0.00 0.00 0.00 89 1015.5
20260505053100 7 241 0.0 6.4 0.00 0.00 0.00 89 1015.4
20260505051549 7 255 0.0 3.2 0.00 0.00 0.00 90 1015.5
20260505041546 6 261 0.0 3.2 0.00 0.00 0.00 92 1015.1
20260505040044 7 260 0.0 4.8 0.00 0.00 0.00 93 1014.9
20260505034541 7 260 0.0 1.6 0.00 0.03 0.00 94 1015.0
20260505033045 7 250 1.6 3.2 0.00 0.03 0.00 94 1014.9
20260505031539 7 242 0.0 0.0 0.00 0.03 0.00 95 1014.9
20260505030038 7 238 0.0 0.0 0.00 0.03 0.00 95 1015.0
20260505024535 7 238 0.0 0.0 0.00 0.03 0.00 94 1015.1
20260505023033 7 238 0.0 0.0 0.00 0.03 0.00 94 1015.0
20260505021531 7 238 0.0 0.0 0.00 0.03 0.00 93 1015.1
20260505020029 8 238 0.0 0.0 0.00 0.03 0.00 93 1015.2